Regional Weather Roundup
Issued by NWS Newport/Morehead, NC

Current Version | Previous Version | Text Only | Print | Product List | Glossary Off
Versions: 1 2 3 4 5 6 7 8 9 10 11 12 13 14 15 16 17 18 19 20 21 22 23 24 25 26 27 28 29 30 31 32 33 34 35 36 37 38 39 40 41 42 43 44 45 46 47 48 49 50
000 ASUS42 KMHX 261614 RWRMHX WEATHER ROUNDUP FOR EASTERN NORTH CAROLINA NATIONAL WEATHER SERVICE NEWPORT/MOREHEAD CITY NC 1200 PM EDT SAT MAY 26 2018 NOTE: "FAIR" INDICATES FEW OR NO CLOUDS BELOW 12,000 FEET WITH NO SIGNIFICANT WEATHER AND/OR OBSTRUCTIONS TO VISIBILITY NCZ015>017-031-032-045>047-102-103-261700- NORTH COAST CITY SKY/WX TMP DP RH WIND PRES REMARKS EDENTON FAIR 82 72 71 SW8 30.00F ELIZABETH CITY FAIR 82 73 74 SW10 29.99F KITTY HAWK FAIR 83 67 59 SW8 29.99S MANTEO FAIR 82 70 65 SW8 30.00F $$ NCZ045>047-081-094-103-104-261700- CENTRAL COAST CITY SKY/WX TMP DP RH WIND PRES REMARKS FRISCO FAIR 81 74 79 SW9 30.03S $$ NCZ095-097-098-100-101-261700- SOUTHERN COAST CITY SKY/WX TMP DP RH WIND PRES REMARKS BEAUFORT FAIR 80 74 81 SW13 30.02F CEDAR ISLAND NOT AVBL JACKSONVILLE PTSUNNY 83 74 74 S10G18 30.00F PINEY ISLAND NOT AVBL WILMINGTON FAIR 84 68 58 SW15 30.00F $$ NCZ011>013-027>030-043-044-078>080-089-090>093-098-261700- COASTAL PLAIN CITY SKY/WX TMP DP RH WIND PRES REMARKS AHOSKIE PTSUNNY 79 69 71 S8 29.98F CLINTON FAIR 83 71 66 SW8 30.00F ELIZABETHTOWN PTSUNNY 85 71 62 S10 30.00F GOLDSBORO FAIR 83 69 63 SW8 29.98F GREENVILLE PTSUNNY 81 70 69 SW10 30.01F HAVELOCK PTSUNNY 81 77 88 S6 30.02F KENANSVILLE PTSUNNY 81 70 69 SW5 30.00F KINSTON MOSUNNY 82 70 65 SW8 30.01F NEW BERN FAIR 83 72 69 VRB7 30.01F RICHLANDS FAIR 85 71 63 SW9 30.01F ROCKY MOUNT PTSUNNY 80 69 69 SW10 29.99F WASHINGTON PTSUNNY 82 69 64 W7 30.00F WHITEVILLE FAIR 84 69 60 SW7 30.00S $$ AMZ130-135-150-152-154-156-158-170-250-252-270-ANZ085-086-088-633-658-670-261700- MARINE OBSERVATIONS STATION/POSITION TIME TEMP WIND PRES WAVE SWELL AIR SEA DIR/SP/G HT/PER HT/PER (UTC) (F) (DEG/KT/KT) (MB) (FT/S) (FT/S) CHESAPEAKE LIGHT NOT AVBL 64 E VA BEACH 1550 72 70 220/ 12/ 14 1015.9 3/ 4 2/ 8 DUCK 1542 79 60 230/ 11/ 14 1015.3 2 E DUCK 1600 66 N/A 1/ 9 OREGON INLET 1542 77 79 190/ 15/ 18 1016.0 13E OREGON INLT 1548 74 N/A 2/ 9 2/ 9 HATTERAS CG 1542 79 76 220/ 8/ 12 1016.5 DIAMOND BUOY 1600 77 78 230/ 12/ 14 1017.2 CAPE LOOKOUT 1600 200/ 11/ 13 1017.0 BEAUFORT LAB 1542 78 78 200/ 11/ 14 1017.0 30 SE NEW RVR IN 1508 77 76 200/ 8/ 10 1017.3 30 SE NEW RVR IN 1600 77 N/A 3/ 8 27 SE WRIGHTSVLE 1508 77 77 210/ 8/ 12 1017.2 5 SE WRIGHTSVLE 1508 76 76 130/ 10/ 14 1016.2 225 S CAPE HAT 1550 79 170/ 8/ 10 1018.3 3/ 8 2/ 8 41 SE CHARLESTON 1550 77 200/ 10/ 10 1016.8 3/ 9 3/ 9 $$

USA.gov is the U.S. government's official web portal to all federal, state and local government web resources and services.